Location: Gleizolles
(44.4833°N, 6.7667°E)
Time: 21:14:27
(UTC+00:00)

Tiros 1 despin weight - Pass Details

Date: 30 June 2024
Orbit: 576 x 620 km, 48.2° (Epoch: 19 July)

Event Time Altitude Azimuth Distance (km) Brightness Sun altitude
Rises 10:56:28 0° 272° (W) 2,880 ? 67.1°
Reaches altitude 10° 10:58:49 10° 277° (W) 1,980 ? 67.3°
Maximum altitude 11:03:17 54° 355° (N) 756 ? 67.6°
Drops below altitude 10° 11:07:47 10° 73° (ENE) 1,989 ? 67.8°
Sets 11:10:09 0° 78° (ENE) 2,894 ? 68.0°
